Theta_e
327 326 326 325 325 325 325 325 325 326 328 326 325 324 323 323 322 320 319 317 315 314 311 311 311 311 309 309 307 306 305 305 304 302 300 299 301 306 314 315 315 316 317 317 317 318 319 321 322 323 323 323 323 324 325 327 329 330 331 331 331 331 331 330 330 330 330 331 332 332 330 326 324 323 323 323 323 323 323 324 323 323 322 321 322
328 327 325 323 322 322 322 322 322 322 323 322 323 322 321 320 320 319 317 317 317 315 312 310 311 310 309 309 308 308 306 304 303 303 302 302 302 304 311 313 315 315 314 315 316 317 318 319 319 319 320 321 323 324 324 325 326 327 328 328 327 328 328 327 327 327 327 328 329 331 331 331 326 324 323 323 322 322 323 323 323 322 322 322 321
326 325 324 322 321 320 320 321 320 320 321 319 319 319 319 319 318 318 318 317 316 315 315 312 310 311 309 309 308 309 307 305 303 303 302 300 300 301 303 308 313 313 312 314 316 317 318 318 318 319 320 320 320 322 322 323 323 324 324 324 323 324 324 325 324 324 325 326 327 327 328 330 329 325 324 323 322 322 322 323 323 323 322 322 322
321 321 321 320 319 319 319 319 319 320 321 320 319 318 318 317 317 317 317 317 316 315 317 315 311 309 311 310 309 309 305 304 303 302 301 300 299 299 299 301 307 311 311 312 314 315 316 317 317 318 319 320 321 321 321 321 321 321 321 322 322 322 322 322 322 322 323 324 324 324 325 327 328 327 326 325 324 322 322 323 323 323 322 322 321
318 317 317 318 318 318 318 318 319 319 319 319 318 318 317 317 317 316 315 314 313 312 314 313 314 312 312 311 311 310 307 305 303 302 300 299 299 298 298 299 299 303 306 309 311 312 314 315 315 316 317 318 320 321 321 321 322 322 321 322 321 320 320 319 319 320 321 323 323 323 323 324 325 327 328 328 325 323 323 323 323 323 322 322 322
317 316 315 313 313 313 313 314 315 316 315 315 314 314 313 314 315 313 310 309 308 308 309 309 310 312 312 312 310 309 305 304 303 301 300 299 298 298 298 298 297 298 299 304 307 308 310 312 312 313 315 318 319 319 321 321 322 321 321 322 321 321 321 320 320 320 320 320 320 320 321 322 323 324 325 327 327 325 324 324 324 323 323 323 323
314 313 312 310 309 309 309 310 310 311 311 311 310 308 307 307 309 307 305 304 304 304 305 306 308 310 311 311 308 306 304 303 302 301 300 299 298 298 298 298 298 298 299 297 300 304 306 308 309 310 313 314 317 319 320 320 320 321 321 321 320 320 321 321 320 320 320 320 319 319 319 320 321 322 323 324 325 327 328 325 324 323 324 323 323
311 310 308 308 308 308 309 309 308 308 308 307 305 304 303 303 303 304 302 301 301 301 302 303 305 307 308 309 304 303 303 303 302 300 299 297 296 296 296 296 297 297 299 296 295 296 303 305 306 307 309 312 314 316 317 317 320 320 320 319 320 319 320 320 320 320 319 320 319 319 319 319 320 320 321 322 323 324 325 326 325 324 324 324 323
307 306 305 305 305 306 307 308 308 308 308 308 306 304 303 302 301 301 301 299 300 299 300 301 303 305 306 303 303 303 302 301 299 296 295 293 293 293 293 294 294 296 294 294 292 291 297 301 303 305 305 309 310 312 312 316 318 318 317 318 319 319 319 318 319 319 319 318 318 318 319 319 319 320 320 320 321 322 323 324 325 325 324 324 323
303 302 302 302 301 301 301 302 303 303 303 304 304 305 304 303 299 299 298 298 296 296 296 297 300 303 303 302 301 300 299 298 296 294 291 290 290 291 291 291 291 290 291 292 291 290 290 294 298 299 301 305 307 309 309 311 313 312 314 315 316 315 315 315 314 313 314 315 316 317 317 318 319 319 320 320 320 321 322 323 323 324 325 325 325
300 300 300 299 299 299 299 299 299 299 299 299 299 299 298 297 295 294 294 293 292 292 293 294 297 300 300 298 298 297 297 296 295 293 290 289 290 291 291 290 290 289 290 290 290 289 289 289 290 290 292 301 306 307 308 307 309 309 311 312 313 312 312 313 312 311 311 311 312 313 315 316 316 317 318 319 320 320 320 321 322 323 323 325 326
298 298 298 297 297 297 296 297 297 296 296 295 295 296 294 292 292 290 289 289 290 290 291 295 298 298 296 296 296 297 296 295 294 293 291 289 289 289 289 289 289 289 289 289 290 289 288 288 290 289 291 295 301 303 305 306 306 307 307 310 311 311 311 311 311 310 310 310 310 311 311 311 312 314 315 316 316 317 318 320 321 322 322 323 324
295 296 295 295 294 294 294 293 293 293 292 292 292 293 294 293 291 290 288 288 288 289 289 293 297 294 294 293 293 293 295 295 294 293 291 290 288 288 287 288 288 289 288 289 289 289 288 288 288 288 290 290 292 298 300 303 304 305 306 306 309 311 311 311 311 310 309 309 310 310 310 310 310 310 311 312 314 315 316 317 318 320 321 322 322
292 292 292 291 290 290 290 290 290 290 290 290 290 291 290 291 291 289 288 287 286 287 289 289 290 290 290 290 289 290 290 290 291 291 291 290 289 287 287 286 287 288 288 287 288 289 287 287 287 288 289 290 291 291 292 294 297 304 304 304 305 309 310 310 310 309 309 309 309 309 309 309 310 310 310 310 311 312 313 315 317 317 318 319 319
290 290 290 289 288 288 288 288 288 289 289 288 288 288 288 288 289 289 286 287 287 288 287 288 286 288 290 290 289 288 290 286 286 287 290 289 287 287 287 286 286 287 287 285 286 288 288 287 288 288 289 290 291 291 292 294 296 300 302 303 303 306 308 309 310 308 308 307 308 308 309 308 309 310 310 310 310 311 312 312 314 316 317 317 318
288 288 288 288 288 287 287 287 287 287 288 287 287 286 287 287 287 287 287 285 284 285 286 286 287 286 287 288 287 283 278 279 283 284 285 286 287 287 287 286 286 286 286 285 285 287 287 287 287 287 287 289 290 291 292 292 295 297 299 299 304 304 306 307 308 308 307 308 309 308 308 308 308 309 309 310 310 310 312 312 312 312 315 316 316
288 288 288 287 287 287 287 286 286 286 287 286 286 286 285 285 286 286 285 283 283 283 285 286 285 287 286 281 279 280 280 280 281 280 283 284 283 286 287 286 286 286 286 285 285 286 287 287 287 286 287 288 289 289 289 289 291 293 295 297 302 302 303 304 306 307 307 307 308 308 307 307 307 308 308 309 310 310 310 311 312 312 312 313 315
286 287 287 286 286 286 285 285 285 285 285 285 285 285 285 285 285 285 285 284 283 282 282 285 285 286 285 285 284 279 280 282 279 277 282 283 283 284 283 284 284 285 285 285 285 285 287 286 286 286 287 287 288 288 286 287 290 289 291 298 301 300 300 301 303 306 306 307 307 308 308 307 307 307 308 308 309 309 309 310 310 310 311 311 312
285 285 285 285 285 285 285 285 284 284 285 284 284 284 284 285 285 285 284 286 284 282 282 282 282 284 285 284 284 285 286 282 281 279 276 279 281 282 282 283 282 283 284 284 284 284 285 285 285 285 286 286 287 287 286 287 290 293 297 299 299 298 298 298 300 302 304 305 306 306 307 307 308 308 308 308 308 308 309 310 310 310 311 311 311
284 284 284 284 284 284 284 284 284 284 285 284 283 283 284 285 284 284 284 284 284 283 281 282 280 282 284 283 282 282 282 282 281 280 279 277 278 279 279 282 282 282 282 283 283 283 283 284 284 285 285 286 286 286 286 286 286 287 293 296 298 298 297 297 298 298 300 303 304 305 306 307 307 308 308 308 308 309 309 309 309 310 310 311 311
284 284 283 284 284 283 283 284 284 283 284 283 283 283 283 283 283 283 283 283 283 283 282 281 281 281 280 280 280 280 279 280 279 279 278 276 275 276 277 277 279 281 282 282 282 283 283 283 284 285 286 286 286 285 285 286 286 288 292 295 297 298 297 298 298 297 297 298 299 301 303 305 306 306 307 308 308 308 308 309 309 310 310 310 311
283 283 283 283 283 283 283 283 283 283 283 282 282 282 282 282 282 282 282 281 282 283 281 280 281 280 280 280 279 278 278 277 277 277 276 278 277 277 277 277 276 278 281 280 281 283 283 283 283 284 285 286 286 285 285 285 286 288 290 293 294 295 295 296 297 296 296 297 297 298 300 301 303 304 306 306 307 307 308 309 309 309 309 310 310
283 283 283 283 283 283 283 283 283 283 283 282 282 282 282 281 281 281 281 281 280 280 281 280 280 279 279 278 279 280 280 278 277 277 278 276 275 276 277 277 277 277 276 279 282 282 282 282 282 283 285 285 286 285 284 284 287 289 291 291 292 293 293 294 295 295 295 296 297 297 298 297 298 301 304 305 306 307 308 309 309 308 309 310 310
282 282 282 282 282 282 282 282 282 282 282 282 282 282 282 281 281 281 280 280 280 280 279 279 279 279 278 278 278 279 279 278 279 279 278 277 277 276 276 276 276 276 279 280 281 280 281 281 281 282 282 283 283 284 283 283 284 289 289 290 291 291 292 293 295 294 294 295 295 295 296 297 298 298 300 302 303 305 307 308 308 308 308 309 309
280 281 281 281 282 281 282 282 282 282 282 282 281 281 281 280 280 279 279 279 279 279 279 278 278 279 278 277 277 278 278 278 279 278 278 278 277 275 276 277 275 276 277 277 277 278 281 280 281 281 280 282 283 282 282 282 282 288 290 287 289 289 290 291 292 293 293 294 294 294 294 295 297 297 297 298 300 302 305 306 308 308 308 308 308
281 281 281 282 282 282 282 281 281 281 281 281 280 280 279 279 278 279 278 278 278 278 278 277 277 277 277 277 277 277 277 278 277 278 277 277 276 275 275 275 275 275 276 275 275 277 275 278 280 281 280 280 281 281 281 281 282 287 288 286 285 289 289 289 290 291 292 293 293 293 294 293 293 294 296 298 298 300 301 302 305 306 307 307 307
281 281 282 281 281 281 280 280 280 280 280 280 280 279 279 279 279 279 279 278 278 278 278 278 279 277 277 277 278 278 277 277 277 278 277 278 277 276 276 274 274 274 273 275 274 275 276 276 278 280 279 280 280 280 280 280 284 286 287 283 281 286 287 288 289 291 292 291 292 292 292 291 292 293 295 296 298 298 299 300 301 302 304 304 305
281 281 281 281 280 280 279 279 279 279 280 280 279 279 279 279 279 279 278 280 279 278 277 277 277 277 278 277 277 276 277 277 278 277 277 278 278 277 276 275 274 272 274 272 274 274 275 276 276 276 278 279 280 280 282 282 280 285 285 281 280 281 285 287 289 290 290 290 290 291 290 291 292 294 294 294 295 296 297 299 299 300 299 300 301
281 281 280 279 279 279 279 279 279 279 279 279 280 279 279 279 278 277 277 277 277 277 277 277 276 276 276 277 277 277 276 277 276 278 278 277 277 277 277 276 276 273 271 271 273 273 274 277 276 276 278 279 279 280 280 279 282 283 281 280 279 279 283 287 288 288 288 289 289 289 289 290 291 292 293 294 294 294 294 294 294 295 296 296 297
282 281 280 279 279 280 279 279 279 279 279 279 279 278 278 278 277 277 276 276 276 276 277 276 277 276 277 276 275 277 276 276 277 276 276 276 276 277 276 276 276 274 273 272 272 275 275 276 277 276 277 278 279 279 279 279 283 283 280 279 279 279 284 285 285 286 287 288 288 287 289 290 291 291 291 291 291 292 293 294 294 294 295 296 298
280 279 279 279 279 278 279 279 279 279 278 278 277 277 277 277 277 277 276 275 276 275 276 276 277 276 276 276 275 275 276 276 275 275 276 276 276 276 275 276 276 275 274 273 271 274 275 275 275 277 277 277 278 278 278 278 281 282 279 278 278 281 282 281 283 284 285 286 286 287 288 290 290 290 290 290 290 292 292 292 292 292 293 294 295
279 279 279 278 278 278 278 278 278 277 277 276 277 277 276 276 276 276 275 275 274 274 275 275 277 276 274 275 275 275 275 275 275 275 275 275 275 276 275 276 275 275 275 274 273 273 276 275 276 276 276 276 277 276 276 277 279 281 278 277 278 280 278 277 280 282 283 284 285 286 287 287 288 289 289 289 289 290 291 291 291 291 292 293 294
279 278 279 279 278 278 278 278 277 277 276 276 276 276 276 275 276 275 274 274 273 273 274 274 274 274 274 274 274 274 275 275 275 275 275 274 274 275 275 275 275 274 274 273 271 272 274 276 276 275 276 275 275 275 275 276 276 276 278 276 276 276 276 276 276 279 281 283 284 285 286 287 288 288 288 287 288 288 289 290 290 290 291 292 292
279 279 278 278 278 277 277 277 277 276 276 276 275 275 275 275 275 277 274 273 272 273 273 273 273 275 273 273 273 273 274 274 274 273 274 273 273 273 273 274 273 274 274 273 272 272 271 274 274 274 275 275 274 275 274 274 274 275 275 275 276 275 276 275 275 276 280 282 283 284 285 286 286 287 287 286 287 287 288 289 288 289 290 290 290
278 278 278 278 278 278 277 277 277 276 275 275 275 274 274 274 274 273 274 272 272 272 273 273 273 273 273 273 273 273 275 273 273 273 273 273 273 273 272 273 272 272 273 273 272 271 271 272 274 273 273 274 274 274 274 275 275 274 274 274 274 275 276 275 275 276 279 281 283 284 284 284 284 285 286 286 286 286 287 287 287 287 288 289 289
278 278 278 278 278 278 277 276 275 275 275 274 274 274 274 273 273 273 272 272 272 272 272 272 272 273 273 273 272 272 272 272 272 272 272 272 272 272 272 272 272 272 272 272 273 272 272 271 272 272 273 273 273 274 274 274 273 273 273 274 274 274 274 275 275 275 277 281 282 282 283 283 283 284 285 285 285 286 286 287 287 287 287 287 287
278 278 278 278 277 277 277 275 275 274 274 274 274 274 274 273 273 273 272 272 272 272 272 272 276 273 273 273 272 272 272 271 271 271 272 271 271 271 271 271 272 272 273 273 272 272 271 270 271 272 273 272 273 273 273 272 272 272 273 273 273 273 273 274 275 276 278 280 280 281 281 282 282 283 284 284 285 285 285 286 286 286 286 286 286
278 279 278 277 277 277 276 275 274 274 274 274 274 273 273 273 272 272 272 272 272 272 272 273 273 273 273 273 273 272 272 271 271 271 271 271 271 270 270 271 271 271 271 271 272 271 271 271 270 270 271 271 271 272 272 272 271 271 271 272 273 273 273 273 273 275 275 276 275 276 278 279 280 282 283 283 284 285 285 285 285 285 285 284 284
278 278 277 277 277 276 276 275 274 274 274 274 273 273 273 273 272 272 271 271 272 272 273 273 273 273 273 273 272 273 272 271 271 270 270 270 269 269 270 270 271 271 271 271 271 271 271 270 270 270 270 271 271 270 271 272 272 271 270 270 270 272 272 272 272 274 275 275 277 279 279 279 281 280 281 283 283 284 284 284 284 284 284 283 284
278 277 277 277 276 276 275 275 275 275 274 273 273 273 273 272 272 271 271 271 272 273 273 273 273 273 273 273 273 272 272 272 272 271 271 271 271 270 271 271 271 271 271 270 272 272 271 271 270 270 270 270 270 271 272 271 270 270 271 270 269 270 271 273 273 272 274 274 274 275 277 278 278 279 281 281 281 283 283 283 282 282 282 283 284
278 277 277 276 276 276 275 275 275 275 274 274 274 273 272 272 272 272 272 272 272 272 273 272 273 273 272 272 273 272 273 277 278 278 278 278 272 269 270 271 269 271 270 270 271 272 271 271 270 271 270 270 270 270 270 270 269 269 271 271 270 271 272 272 273 274 274 274 274 274 275 276 276 276 276 276 277 279 279 281 281 281 281 283 284
277 277 276 276 276 276 275 275 275 274 273 273 276 279 278 273 273 273 273 272 271 272 272 271 271 272 272 272 273 277 277 278 278 279 279 279 279 277 273 272 269 268 268 270 271 272 271 271 270 271 270 270 270 271 271 271 272 272 271 271 271 272 272 272 273 274 276 275 274 274 275 277 276 276 277 276 277 278 277 277 277 279 282 284 284
277 276 276 276 276 276 275 275 273 273 272 273 278 281 280 279 273 272 272 271 271 271 271 271 270 271 271 272 271 274 276 277 275 277 278 278 278 278 278 278 277 273 268 270 271 272 271 271 271 271 270 270 270 272 271 272 272 272 272 272 272 272 271 270 269 273 276 275 275 274 274 277 277 276 276 276 277 277 277 277 281 282 283 283 284
276 276 275 275 275 275 274 273 272 272 272 277 280 281 282 281 279 273 271 270 270 271 271 271 271 271 271 271 271 272 272 272 272 272 274 276 277 277 277 277 277 277 277 273 272 271 271 270 270 270 270 270 270 272 272 272 272 273 273 273 273 272 271 271 271 271 275 277 275 274 273 276 277 276 275 276 277 277 277 280 282 283 283 284 284
276 275 275 275 274 273 272 271 271 271 271 278 280 282 282 282 282 277 271 272 271 270 271 271 271 271 270 271 270 272 271 275 274 270 269 269 274 275 276 276 276 275 275 276 277 274 273 271 270 270 271 271 271 272 273 273 274 273 273 273 273 273 273 272 272 273 275 277 275 273 272 275 276 275 275 276 277 277 277 279 281 282 283 284 284
276 275 275 274 273 271 271 271 271 270 270 277 281 282 282 282 281 280 271 272 271 272 273 272 271 271 271 270 270 270 270 269 269 269 269 269 269 269 269 269 269 272 275 276 276 277 276 274 272 271 273 274 272 273 274 275 274 273 273 272 273 273 273 273 274 274 275 276 274 273 272 274 276 275 274 274 276 276 276 279 282 282 283 283 283
275 274 273 272 271 270 270 269 269 270 270 277 281 281 282 282 281 280 272 273 273 273 274 273 272 271 271 271 270 269 269 269 269 271 270 270 268 268 267 268 270 272 273 273 273 273 273 274 274 274 274 275 275 275 275 276 275 275 275 274 274 273 273 273 273 274 274 276 276 274 270 272 275 272 272 274 276 276 275 278 281 282 282 283 283
274 272 269 268 270 269 269 268 268 269 269 278 280 281 281 281 281 274 272 272 272 272 272 272 272 272 271 270 269 269 268 269 272 275 275 273 270 267 268 270 272 273 273 276 277 278 277 277 276 276 275 276 279 278 278 278 277 276 275 274 273 272 271 270 269 271 271 274 274 272 269 269 272 272 273 275 275 274 275 275 279 281 282 282 282
272 271 271 270 270 270 269 268 268 269 267 275 279 280 281 281 280 271 271 271 271 271 270 270 270 270 270 269 269 269 269 268 272 275 276 276 273 272 272 272 273 273 273 274 278 280 280 280 280 280 280 280 280 279 279 279 276 275 272 270 269 269 267 265 266 267 268 271 272 272 271 270 273 273 271 272 273 274 275 275 276 279 281 281 281
272 271 270 269 268 269 268 268 269 268 267 272 279 280 280 281 278 271 271 271 270 270 269 269 269 269 270 273 272 270 269 269 273 275 276 275 273 273 273 273 273 272 273 275 276 277 278 279 278 278 277 277 277 276 275 275 275 274 269 266 267 267 266 266 265 266 268 269 271 274 271 270 272 273 272 273 273 274 275 275 275 276 278 278 279
272 271 269 269 267 266 267 268 271 269 267 270 277 279 280 280 278 270 270 269 269 268 267 267 269 269 269 271 273 273 272 272 276 276 277 276 275 275 274 273 272 272 274 275 274 273 273 271 271 270 270 271 269 269 269 272 273 271 269 268 268 267 266 266 266 266 265 267 271 273 267 268 268 270 270 267 266 269 272 273 274 273 273 273 274
Wind_Speed
5 5 4 5 5 5 6 5 5 4 4 4 5 3 5 4 5 5 5 5 5 5 4 4 4 5 6 5 4 5 5 6 6 5 4 3 4 7 11 14 15 16 17 17 17 17 17 18 18 18 18 18 17 16 15 14 14 15 16 16 16 16 16 15 14 14 14 13 13 14 12 8 6 5 5 5 6 4 4 5 6 7 8 8 8
6 5 7 7 6 6 6 6 6 4 5 6 4 5 5 5 5 5 5 5 5 3 5 5 4 4 5 6 5 5 5 5 6 6 6 7 7 7 11 13 15 17 18 17 17 17 17 17 17 17 18 18 18 17 17 16 15 15 16 17 17 16 16 16 15 15 15 15 15 14 17 15 10 7 5 5 4 4 5 6 6 7 7 7 8
6 6 7 6 6 6 6 5 6 4 5 6 5 5 5 5 4 4 5 5 4 3 4 5 4 4 4 5 5 6 6 6 6 7 7 7 7 6 8 13 14 16 19 19 18 18 18 18 18 18 18 18 17 17 18 17 17 17 17 16 16 16 16 16 16 15 15 15 16 15 16 18 11 7 8 6 5 5 6 8 8 9 5 6 8
7 7 7 7 6 6 5 6 5 5 5 5 6 5 5 4 5 4 6 5 5 6 5 4 4 3 5 5 4 6 6 6 7 7 7 7 7 7 7 8 11 13 16 19 19 19 18 18 18 19 18 18 18 18 17 17 17 17 18 18 18 17 17 18 17 16 16 16 16 16 17 17 16 12 10 10 8 5 7 8 8 8 4 5 7
7 8 6 6 7 6 7 6 5 5 5 5 6 5 6 6 8 7 6 6 6 6 5 5 5 4 5 4 5 6 6 7 7 7 8 8 7 7 6 6 7 11 14 15 19 20 19 18 19 19 19 18 18 18 17 17 17 18 18 19 18 18 18 18 18 17 18 17 18 18 17 18 17 16 15 15 10 6 10 9 9 9 7 7 10
7 7 6 6 7 7 7 7 6 6 6 6 6 6 6 7 6 6 7 6 6 5 5 6 4 5 6 5 7 6 7 8 7 7 7 7 6 7 6 6 6 7 8 12 16 19 20 19 20 20 19 19 18 18 17 17 17 18 18 19 19 19 19 19 19 18 18 19 19 18 18 18 17 18 17 16 14 12 12 12 13 9 8 9 12
7 7 7 6 7 7 8 6 6 6 7 6 6 6 7 8 5 7 6 6 5 6 5 4 5 5 5 6 6 6 7 7 8 7 7 7 7 7 7 7 7 7 7 7 10 15 20 20 20 20 20 19 19 18 18 18 18 18 18 18 19 19 19 19 19 19 19 19 19 18 18 18 18 18 18 19 18 17 17 13 12 12 9 12 13
8 7 7 6 7 8 6 6 5 6 7 7 7 7 7 7 7 6 7 6 6 6 5 5 4 5 5 6 6 6 7 8 8 8 7 7 7 7 8 8 8 7 7 7 8 10 17 18 19 21 21 20 19 19 20 19 18 18 18 18 18 19 19 19 20 20 20 19 19 19 19 19 19 19 19 19 18 19 18 17 15 12 12 12 13
7 5 7 7 7 7 6 6 5 6 6 6 7 6 7 7 8 7 6 5 6 5 5 5 4 5 5 6 6 7 8 7 8 7 7 8 7 7 8 8 7 8 7 7 7 7 10 17 17 18 19 19 19 20 20 19 19 19 19 18 18 19 19 20 20 20 20 20 20 20 20 20 19 19 19 19 19 19 19 19 18 18 15 14 13
7 6 8 8 7 8 7 7 7 7 7 7 7 6 7 7 8 8 7 6 6 6 5 4 4 4 6 7 8 8 8 8 7 7 8 8 7 7 6 6 7 7 7 6 7 7 7 10 13 14 15 17 19 19 20 20 19 20 20 20 20 20 21 21 21 21 20 20 20 20 20 21 20 20 20 20 19 19 19 20 20 17 18 18 19
7 7 8 8 8 8 8 7 7 7 8 8 8 8 8 8 8 7 6 6 5 4 3 3 4 5 7 7 8 8 7 7 7 7 7 7 7 5 6 7 6 7 7 7 6 7 8 7 7 7 9 15 17 19 19 20 19 20 20 20 21 21 21 22 22 22 21 21 20 20 20 20 20 20 21 22 21 21 20 20 20 21 17 17 17
8 8 9 8 9 8 9 8 7 8 9 9 7 7 7 8 8 6 6 7 8 6 6 5 8 8 7 8 7 7 7 7 7 6 6 7 6 6 6 5 6 7 6 6 6 7 8 7 7 7 6 9 14 15 15 17 17 18 20 21 20 21 21 22 23 23 23 22 22 21 20 20 20 20 20 20 20 20 21 21 21 21 21 19 19
7 8 9 9 8 8 9 8 7 9 9 8 6 7 5 5 5 7 9 11 11 9 7 3 8 7 7 7 8 6 7 7 6 6 6 5 6 6 6 7 6 6 6 6 6 7 6 7 7 7 7 6 8 11 13 13 13 17 18 20 20 21 21 22 23 24 24 23 23 23 22 21 21 21 20 20 20 20 20 20 20 21 21 21 20
7 8 9 9 9 8 8 7 7 8 8 7 8 8 8 7 4 8 6 10 8 8 9 3 5 4 7 4 6 6 5 7 7 5 5 5 5 6 6 7 7 5 6 7 6 6 7 7 7 7 7 6 7 6 7 8 8 13 16 19 20 20 22 23 24 24 24 24 24 23 23 23 22 22 22 21 21 21 20 20 20 20 20 21 21
7 8 9 8 9 9 8 7 7 6 9 10 9 9 7 7 7 6 6 5 7 7 10 7 3 1 1 5 2 2 2 6 4 5 5 4 4 6 6 7 7 5 5 7 7 6 6 7 7 7 7 7 6 6 6 7 8 9 12 15 19 19 21 23 24 24 24 24 24 24 24 24 23 23 22 22 22 21 21 21 20 20 20 20 21
8 8 8 8 9 9 7 8 8 7 9 10 10 9 9 8 8 7 5 9 7 8 7 8 6 2 2 1 1 2 2 2 3 3 2 4 6 6 5 6 7 6 6 7 7 6 7 7 7 6 6 6 6 6 6 6 10 9 9 11 13 18 20 22 24 24 24 24 24 24 23 24 24 23 23 23 22 22 22 22 22 21 21 21 20
7 7 8 9 8 8 9 8 9 7 8 10 9 8 7 6 7 8 7 6 7 5 8 8 10 6 3 3 3 4 0 2 3 3 4 3 4 5 5 8 8 8 6 6 7 6 5 7 7 7 6 6 6 5 6 7 7 7 8 10 11 16 19 22 24 24 24 25 25 24 24 24 24 24 23 23 23 23 23 23 23 22 22 21 21
7 8 8 8 9 9 8 9 9 8 9 8 7 8 8 9 6 6 8 6 7 7 6 6 7 9 8 4 2 2 0 2 3 2 6 1 4 5 4 7 7 7 7 7 8 8 7 7 7 7 7 6 6 5 5 6 6 7 7 8 17 18 20 22 23 23 24 24 24 25 24 24 25 24 24 24 24 24 24 24 23 23 22 22 21
8 8 8 9 9 9 9 9 9 8 7 9 9 8 7 6 6 8 6 5 7 8 7 4 4 7 7 6 8 5 2 2 1 1 4 5 4 3 4 7 6 6 6 7 7 7 8 7 7 7 6 6 5 5 6 7 8 8 10 15 19 19 20 22 22 22 23 23 23 24 24 25 25 25 25 25 25 25 24 23 24 24 23 23 22
8 8 8 8 8 9 8 9 10 8 9 9 8 6 7 7 7 7 7 7 7 8 6 6 6 3 4 7 5 5 5 7 4 1 1 3 6 6 2 8 8 6 4 7 7 7 8 8 8 7 7 6 4 5 5 6 6 7 7 19 20 21 21 21 21 21 22 23 24 24 24 24 25 25 26 26 26 25 25 24 24 24 24 24 23
7 8 7 8 8 8 8 9 9 8 8 8 7 8 8 8 8 9 8 7 6 4 7 6 6 4 4 5 4 4 4 3 4 3 1 0 5 1 5 4 5 7 7 7 7 7 7 6 7 7 6 6 5 4 6 7 7 5 8 18 20 22 22 22 21 21 22 22 23 24 24 24 25 25 26 26 26 25 25 25 24 24 24 24 24
7 7 8 7 8 8 9 9 8 7 8 8 8 8 8 8 7 7 7 8 5 7 7 5 6 5 5 3 5 4 5 5 4 5 2 0 1 5 4 5 6 5 7 6 8 9 9 7 6 7 7 6 6 6 6 7 6 7 11 22 21 21 21 21 21 21 22 23 23 23 23 24 26 26 26 26 26 25 25 25 25 25 24 24 24
6 6 7 7 8 7 8 8 7 7 8 8 7 8 7 7 6 8 9 8 6 7 6 5 5 6 5 6 4 4 1 1 1 2 1 1 3 5 4 4 4 7 4 5 8 9 8 6 4 6 6 6 6 6 7 7 8 12 18 18 19 20 21 21 21 21 22 22 23 23 25 26 26 26 26 25 25 25 25 25 26 25 25 24 24
6 7 6 6 7 7 7 7 8 8 8 7 7 7 6 6 7 7 7 6 6 7 5 6 5 5 4 4 3 2 3 3 1 1 1 2 1 5 6 4 4 4 6 5 8 6 6 6 5 6 6 5 4 5 7 8 9 15 11 12 18 20 20 20 21 22 22 22 23 24 25 25 25 25 25 25 25 25 25 26 26 26 25 25 24
6 7 5 6 7 8 7 8 7 7 7 7 6 6 7 7 7 6 6 6 6 6 7 5 4 5 3 2 2 3 2 0 2 2 1 0 1 3 3 2 4 6 4 3 2 4 6 3 5 6 4 4 5 8 8 6 6 10 14 8 17 18 18 19 21 22 23 23 24 24 23 23 24 24 25 25 25 25 25 26 26 26 26 25 26
8 7 6 6 6 6 7 7 6 6 7 7 7 6 6 7 6 7 6 4 5 6 5 4 4 3 2 4 3 3 3 1 2 4 2 3 3 3 5 3 3 6 3 2 2 2 4 3 5 5 3 4 6 6 5 6 6 8 15 10 10 14 16 19 21 22 23 23 23 23 22 22 24 25 25 25 25 26 26 25 25 26 26 25 25
8 6 5 7 6 6 6 7 6 6 6 7 6 6 6 6 6 6 5 4 5 6 5 4 4 3 3 2 2 3 3 2 3 3 2 1 0 1 3 8 6 2 4 3 3 2 5 4 3 4 2 4 6 5 6 5 6 12 14 7 5 9 16 19 20 21 21 22 22 22 22 24 24 24 24 24 25 25 25 25 25 25 25 26 26
6 7 5 6 7 7 6 6 6 6 6 6 6 6 5 6 5 5 5 3 4 5 4 4 2 1 0 1 3 3 2 2 2 3 3 1 1 1 2 2 3 7 5 5 1 4 2 1 4 3 2 6 7 6 6 7 7 13 10 5 5 6 13 19 20 20 20 20 21 22 24 24 23 23 23 23 23 23 24 25 25 26 26 26 27
7 6 7 5 6 7 7 7 6 6 6 5 6 6 5 5 5 5 4 2 3 4 4 3 2 2 2 1 0 1 2 1 2 3 3 3 3 1 0 0 0 2 4 5 6 2 4 1 2 4 4 6 8 7 7 7 9 12 6 6 6 6 13 21 21 20 20 21 22 22 22 22 23 22 22 23 24 25 26 26 27 27 27 27 26
7 6 6 6 5 6 7 6 6 6 6 5 5 5 5 5 5 4 4 4 4 3 3 3 2 2 1 1 1 1 0 1 1 2 2 2 2 3 1 1 0 1 2 4 8 2 6 2 1 4 5 8 6 8 8 9 10 10 7 8 8 8 19 20 20 20 21 22 22 22 22 22 21 22 23 25 25 25 25 25 26 26 26 27 27
7 7 7 6 6 6 6 6 5 5 4 4 4 5 5 6 4 5 4 4 5 4 2 2 1 2 1 1 0 1 0 0 1 2 2 3 3 2 2 2 3 0 2 3 5 5 3 4 2 4 8 7 6 6 7 7 8 10 9 8 8 15 20 13 18 20 21 22 22 22 22 22 22 23 23 23 23 24 25 25 25 25 26 27 27
6 7 7 7 7 7 6 6 5 4 4 4 4 6 6 6 5 6 4 4 4 4 2 1 1 2 2 1 0 0 1 0 1 1 1 2 1 2 2 1 2 1 0 2 5 12 8 5 8 7 6 7 8 8 7 6 8 11 7 9 11 15 9 8 14 20 21 21 21 21 22 23 23 23 22 23 23 24 24 24 25 24 25 25 25
7 8 7 7 7 7 7 6 5 5 4 5 4 5 6 5 5 4 4 4 4 3 2 1 1 2 2 1 1 1 0 0 0 1 1 1 1 2 1 1 1 1 1 2 5 10 13 4 3 5 6 5 9 5 8 7 9 10 9 8 8 9 9 9 9 15 19 21 21 22 22 21 22 22 22 23 23 23 23 23 23 24 25 25 26
7 8 8 6 6 6 6 6 6 5 4 5 5 5 6 5 4 3 5 4 4 2 3 1 0 1 1 1 1 1 0 0 0 1 0 1 1 1 1 1 1 2 2 2 4 6 13 14 8 3 6 4 7 5 7 11 10 10 12 10 8 8 9 8 9 9 18 20 22 22 21 21 21 22 22 22 23 22 22 23 23 24 26 27 27
5 6 7 7 7 7 6 6 6 5 5 5 5 6 5 5 5 4 4 4 3 3 2 1 1 1 1 0 1 1 0 1 1 1 0 1 1 0 1 1 2 2 2 2 4 7 9 13 11 8 6 8 6 8 8 8 10 8 10 11 10 10 7 8 8 7 14 20 22 21 22 22 22 22 22 22 22 22 22 23 23 25 25 26 26
8 5 6 7 7 7 7 6 5 5 5 5 5 5 6 5 5 4 4 3 2 2 2 2 1 1 1 1 2 1 1 1 2 1 1 0 1 1 2 2 1 3 3 3 3 5 8 10 14 8 8 9 10 6 7 8 8 10 9 11 10 10 10 8 7 8 11 20 21 21 21 21 22 22 22 21 21 22 23 24 25 26 26 26 26
6 7 6 6 7 7 8 7 7 6 6 6 6 5 4 4 5 4 3 3 3 2 2 2 3 2 1 2 2 1 1 2 2 2 2 2 2 2 2 2 2 2 2 2 4 3 7 10 13 10 7 8 8 8 5 8 10 9 9 10 10 10 11 8 7 8 14 19 18 19 19 20 21 21 21 21 22 22 24 25 26 26 26 26 25
7 7 8 7 7 8 7 7 6 6 5 5 6 6 5 4 4 3 3 3 3 2 2 2 2 2 2 2 2 1 1 2 4 3 2 3 2 2 2 2 2 2 3 3 3 4 6 9 9 13 10 8 11 7 4 7 10 12 12 11 10 9 9 11 9 7 7 7 7 8 11 14 16 21 21 21 22 24 25 26 26 27 26 25 25
9 9 7 8 7 7 7 7 7 7 6 5 5 5 5 4 4 4 3 3 3 2 2 3 2 2 2 1 1 1 2 2 3 4 3 3 2 3 3 3 3 3 3 4 3 5 6 8 9 8 10 8 5 11 8 5 8 8 10 13 13 9 8 9 12 9 7 9 10 15 14 15 18 15 18 22 23 24 25 25 26 26 25 25 26
9 9 10 9 8 6 7 7 6 6 6 5 5 5 5 5 4 4 4 3 3 2 1 1 1 1 1 1 1 2 2 3 3 4 3 4 3 4 4 3 3 3 4 4 5 6 7 9 9 11 9 9 9 7 7 7 8 8 5 8 13 15 13 11 10 12 11 9 10 8 9 11 11 14 16 17 20 23 26 24 24 24 25 26 25
7 8 8 8 9 8 6 6 7 6 6 6 6 6 6 5 5 5 4 3 3 2 1 1 1 1 1 1 2 2 3 6 8 7 6 6 4 4 4 3 4 4 4 3 4 7 7 8 11 10 12 12 11 12 11 8 8 11 11 9 12 12 12 13 13 9 8 10 9 8 8 8 10 9 9 9 9 15 16 20 18 21 22 23 24
8 7 7 7 8 9 9 7 6 6 6 5 6 10 8 6 5 5 4 3 2 2 2 2 2 1 1 2 3 6 8 8 8 9 9 10 10 6 3 3 3 4 4 4 5 5 6 7 6 9 11 13 12 12 13 13 10 10 11 11 13 15 14 13 13 7 7 8 9 11 11 9 10 12 9 10 9 10 10 10 10 15 20 25 25
9 8 8 9 8 8 9 9 8 6 6 5 11 12 12 12 6 5 5 3 3 2 3 3 3 3 3 3 3 4 5 5 4 8 10 10 10 10 11 11 8 5 4 5 5 5 6 7 6 5 8 13 13 12 12 13 11 11 9 10 12 13 11 13 16 11 4 5 13 14 14 9 11 13 9 9 10 9 9 9 19 24 25 25 25
8 7 8 9 8 8 7 7 7 7 6 8 13 12 12 12 9 6 4 4 3 3 3 3 3 3 3 3 3 2 2 3 4 4 5 7 9 10 11 11 10 10 9 5 5 5 5 7 9 9 10 12 13 10 11 12 12 12 11 12 12 11 16 14 10 14 9 9 14 17 19 11 9 10 11 10 8 8 10 17 25 26 27 26 25
7 8 10 9 8 7 7 8 7 6 6 11 13 13 13 12 12 9 5 5 5 4 3 3 3 3 3 4 3 3 2 6 4 2 2 3 6 10 11 11 9 9 10 13 13 9 7 9 10 12 9 10 12 10 8 10 13 14 14 12 12 14 13 15 16 10 12 12 15 17 18 14 8 10 9 8 8 8 9 14 23 26 26 26 26
9 8 7 8 7 8 8 8 7 6 6 10 14 14 13 12 12 9 5 6 4 4 4 4 4 4 4 4 3 4 3 2 3 3 3 4 5 4 5 4 4 6 10 13 15 17 15 11 11 12 12 10 12 13 13 12 14 15 15 13 12 12 14 14 17 18 16 11 14 15 18 14 7 7 9 9 9 9 8 14 25 26 26 26 26
11 11 10 9 8 7 7 6 6 7 6 11 13 13 13 13 12 8 5 4 4 4 6 5 5 5 5 5 3 4 3 3 4 4 4 5 5 5 5 5 6 7 7 8 9 9 10 10 12 13 13 12 13 14 13 11 12 12 12 12 13 15 17 17 16 13 13 7 10 11 14 14 8 10 9 10 8 8 7 14 24 26 25 24 23
5 4 4 5 7 8 7 6 6 7 6 13 14 13 13 13 13 5 5 5 5 4 5 5 4 5 4 4 4 4 4 4 7 12 10 6 5 5 6 7 7 8 7 10 15 15 12 10 9 9 8 10 15 14 15 15 14 14 14 13 11 11 12 11 12 11 12 10 12 13 14 15 8 10 11 8 9 10 10 10 17 23 22 22 22
8 8 9 9 8 8 8 7 8 7 5 10 14 14 14 14 9 5 5 5 5 5 6 5 5 4 4 4 4 5 5 5 9 12 13 11 5 7 8 9 8 8 8 8 13 17 16 16 18 21 23 23 22 23 24 25 18 15 12 11 9 10 12 14 14 11 11 10 10 11 13 14 8 8 11 8 9 9 9 9 8 13 21 22 21
10 11 8 8 7 7 8 9 9 9 7 9 14 14 15 15 10 7 6 6 5 5 5 5 5 6 5 11 9 6 7 6 11 13 13 10 7 8 9 9 9 9 8 7 5 5 11 15 16 16 18 20 21 21 19 19 19 15 9 10 11 10 10 9 13 12 13 11 10 10 12 10 10 8 12 10 10 7 8 9 12 12 17 19 27
9 7 7 7 7 6 7 8 8 9 7 9 14 15 15 15 10 6 7 6 6 7 6 6 5 5 5 7 13 11 9 9 14 14 14 12 8 8 7 8 10 10 6 3 6 8 4 5 6 7 8 10 9 8 10 17 16 13 8 9 8 8 9 10 11 12 12 8 8 13 14 13 14 12 12 14 14 8 8 9 8 11 12 11 12
Wind_Direction
78 82 79 81 82 77 76 65 58 62 94 88 99 96 73 68 68 68 70 75 69 71 85 76 74 71 69 49 43 41 41 50 56 64 49 38 35 37 40 39 40 42 37 32 28 26 25 23 21 20 18 15 13 12 9 7 9 12 13 16 19 18 25 25 17 14 9 5 5 358 334 302 298 298 315 324 333 333 328 328 334 338 344 346 343
86 79 80 65 64 64 65 66 68 56 66 75 65 77 70 66 68 66 69 67 64 64 93 87 79 80 73 71 56 57 55 56 48 50 56 44 38 35 34 36 37 42 35 32 32 31 30 29 24 22 19 17 16 15 15 12 12 13 12 12 13 10 11 15 12 6 1 3 5 3 357 334 299 297 295 300 312 314 316 310 319 328 329 338 341
75 77 78 76 66 66 60 61 66 56 74 84 74 85 81 75 69 78 69 61 51 43 85 97 89 76 76 77 72 62 60 54 52 49 49 46 46 40 33 33 37 40 34 33 35 32 33 32 30 26 23 21 18 17 16 15 15 15 14 13 13 9 10 11 12 6 359 357 357 360 2 359 322 286 289 282 285 289 298 300 298 314 307 321 336
70 69 75 80 73 69 65 61 61 61 65 76 75 68 71 71 67 52 66 63 52 38 36 68 55 69 84 80 72 70 66 60 55 54 52 48 42 39 36 35 32 31 28 29 30 30 30 32 29 26 25 21 21 19 18 17 16 17 15 14 15 13 12 11 8 4 1 359 357 359 359 357 355 322 291 283 289 283 290 286 295 308 300 298 321
72 75 70 78 74 68 61 54 45 51 57 64 70 64 61 56 48 43 38 40 39 33 27 40 40 23 55 57 64 64 66 60 59 59 56 52 42 35 37 35 35 30 24 22 25 28 26 27 26 23 21 20 19 18 19 19 20 21 18 15 15 14 14 12 8 5 2 360 358 360 356 353 350 351 340 307 298 275 271 269 284 297 284 289 301
82 78 74 71 70 64 61 49 36 49 58 53 60 54 57 54 52 57 43 44 41 29 38 35 8 39 47 43 57 67 66 65 66 64 63 55 44 40 32 33 31 29 26 21 21 25 28 28 27 23 21 19 18 18 18 19 20 20 18 16 17 17 15 13 10 8 6 3 0 357 355 352 350 348 345 347 332 303 285 304 311 300 277 294 299
72 82 78 76 77 73 64 64 65 62 65 56 68 63 66 62 50 63 54 44 41 38 38 44 32 29 32 41 67 68 68 73 64 61 56 48 39 29 27 28 25 27 26 25 20 17 22 25 27 25 23 22 21 21 22 23 18 18 20 18 18 16 15 13 11 10 9 6 3 359 356 353 352 349 347 345 343 340 336 312 302 303 287 291 299
73 74 82 77 80 78 74 73 73 77 73 70 70 70 70 68 50 53 59 38 37 30 28 30 26 37 34 68 76 75 77 71 67 60 54 51 42 36 34 32 31 28 28 29 22 15 15 17 22 23 22 22 23 26 25 21 18 21 19 16 17 16 16 16 14 11 9 7 4 2 358 356 353 351 349 347 344 341 338 328 311 299 292 288 296
67 67 82 75 69 70 59 57 49 61 65 67 69 68 73 70 56 44 52 53 37 28 22 20 19 26 67 82 77 75 73 72 67 64 55 52 44 41 37 31 31 30 26 25 24 18 8 15 16 15 12 15 24 26 26 24 25 25 21 18 17 17 16 18 18 14 11 8 7 4 1 358 356 355 352 349 347 343 340 337 331 310 290 285 287
67 69 78 76 75 73 64 55 57 59 62 57 55 53 60 67 69 50 41 44 38 26 7 360 24 40 73 79 70 73 75 78 77 67 62 54 49 46 40 36 32 28 26 24 23 16 16 9 10 10 5 7 20 23 25 23 24 26 25 26 27 24 21 19 17 13 10 7 5 2 2 360 358 356 354 352 349 345 342 339 336 329 318 311 306
64 65 75 74 71 67 65 55 57 62 63 60 56 58 62 58 66 59 51 54 54 29 5 338 54 73 68 62 76 77 82 84 81 76 67 63 57 48 48 33 32 27 26 23 17 19 15 11 11 10 1 2 11 18 22 21 19 25 23 23 22 21 19 17 17 14 10 7 5 3 0 359 357 354 353 352 351 349 345 341 337 335 328 315 307
63 67 73 74 74 69 69 60 59 67 66 62 54 55 65 66 58 62 52 48 40 23 23 47 78 71 70 63 61 72 68 76 76 79 77 63 55 49 47 34 34 19 22 16 15 17 15 10 8 3 5 358 1 7 12 17 15 18 20 17 17 17 16 13 14 11 7 5 3 2 0 359 356 353 351 348 346 345 345 343 340 337 333 328 321
63 69 76 77 75 74 73 65 66 71 73 71 67 63 54 67 75 58 54 51 31 15 12 35 95 69 59 68 62 55 64 62 61 58 65 66 54 53 38 44 27 22 10 14 13 10 15 8 1 358 0 1 356 357 2 2 4 10 13 12 10 11 11 10 10 8 4 2 0 359 358 357 354 352 350 348 345 343 341 340 339 338 335 331 326
70 75 75 80 83 77 72 73 72 76 83 80 69 60 55 46 39 65 45 63 49 21 9 62 37 108 105 74 62 50 51 55 52 35 41 44 49 50 39 46 30 13 4 22 9 3 5 4 360 357 354 355 355 355 354 356 358 3 6 7 5 5 6 6 5 4 2 360 358 356 355 355 353 351 349 346 345 343 341 338 336 334 334 332 330
72 75 79 77 81 81 76 76 71 83 79 66 62 56 53 53 46 70 62 50 73 35 33 37 114 50 136 95 120 100 356 9 2 33 27 31 35 40 36 41 30 16 7 22 5 357 354 357 357 356 350 349 350 351 349 348 354 355 1 3 1 360 1 1 0 359 358 357 355 354 352 351 350 349 348 346 344 342 340 338 336 333 331 329 329
71 76 81 77 81 84 85 76 71 67 81 79 66 61 52 49 51 47 66 65 33 38 38 35 59 87 44 116 173 110 2 334 352 292 56 62 37 31 24 32 23 7 15 17 360 353 345 348 353 348 344 344 347 347 349 350 348 349 344 347 350 357 358 357 355 354 354 353 351 351 350 348 347 346 344 344 342 341 339 337 335 333 331 328 326
74 77 85 86 83 86 85 82 79 69 75 76 72 69 67 64 61 65 51 97 62 43 27 34 43 33 125 65 6 35 175 258 351 287 1 15 21 39 20 31 7 359 4 357 358 346 340 344 342 341 339 344 345 341 351 351 350 351 346 336 346 1 356 354 351 350 350 349 347 347 347 346 345 343 341 340 340 338 336 334 333 332 331 330 327
77 79 79 83 80 79 81 81 76 71 70 79 81 70 57 58 48 72 64 45 101 64 40 14 40 43 46 67 122 160 294 292 80 318 334 98 1 17 37 26 4 356 354 358 351 337 341 338 334 330 331 339 341 337 353 350 348 350 353 339 3 360 354 351 348 347 346 345 344 343 343 342 342 340 339 337 337 336 334 332 330 329 329 328 327
73 75 77 79 82 78 80 80 79 78 77 77 70 69 67 62 56 63 62 65 66 74 56 341 2 30 26 42 51 46 72 89 355 358 350 321 2 354 357 9 359 356 1 348 339 344 333 330 325 322 322 326 341 332 353 347 345 355 352 360 359 353 349 347 346 344 343 341 340 340 339 338 338 337 335 334 334 334 333 331 329 328 326 326 325
80 74 77 80 85 82 82 81 80 75 77 74 79 78 77 60 63 70 67 59 68 86 77 37 81 340 4 33 27 40 52 64 66 131 249 295 314 334 344 3 353 341 348 338 331 334 328 323 325 322 318 317 332 334 346 347 349 0 360 358 353 349 345 343 343 341 339 338 337 336 335 335 334 334 332 331 331 331 330 329 328 327 325 324 323
75 84 79 83 82 89 85 84 82 79 82 85 80 75 74 75 63 60 65 60 60 78 80 57 60 35 20 6 23 32 23 72 68 57 102 335 294 309 309 332 352 322 339 330 321 326 319 313 314 313 310 309 334 337 349 3 3 6 357 354 351 346 343 341 339 338 337 336 335 333 332 332 332 331 330 329 328 327 327 326 326 326 325 323 322
80 81 85 81 87 86 86 86 89 89 84 87 85 77 73 73 73 78 75 74 57 64 79 71 69 58 69 68 43 353 14 6 22 19 2 79 234 304 310 329 334 296 311 317 328 319 314 320 326 321 322 328 342 357 2 14 0 356 351 352 348 344 340 337 336 335 335 334 332 331 331 332 330 328 327 326 325 324 324 324 324 325 324 323 321
95 83 85 92 88 86 91 91 89 89 89 85 83 89 84 85 83 76 68 75 69 73 70 64 71 64 54 62 83 91 116 104 307 4 104 293 348 304 313 304 281 307 281 317 316 304 302 310 332 326 332 346 356 3 13 4 360 356 351 343 341 338 337 335 334 334 333 332 332 332 332 329 328 327 325 325 324 323 323 322 323 322 322 322 321
98 98 90 94 97 92 94 94 91 93 89 95 93 93 92 90 80 79 78 79 79 78 77 66 56 65 55 51 63 95 89 114 168 132 89 274 241 281 296 302 301 247 288 312 291 288 293 318 321 326 345 4 3 7 6 4 354 344 338 340 341 336 333 333 334 333 332 331 331 330 328 327 326 325 326 325 324 323 323 322 321 321 320 320 320
117 110 113 110 111 106 101 100 98 93 101 95 96 95 95 90 91 86 87 82 87 89 82 81 82 71 57 31 76 51 34 281 98 83 34 147 44 328 275 303 279 298 280 293 282 307 297 282 336 320 0 2 4 15 2 346 336 327 341 338 337 331 331 335 333 331 328 328 327 327 326 324 325 327 325 323 322 322 322 321 320 320 319 319 319
136 128 137 119 101 107 108 102 102 105 101 103 103 104 100 101 99 94 91 105 93 89 95 94 78 90 96 52 26 28 357 354 83 70 47 27 354 331 308 303 269 279 288 327 297 6 315 343 326 312 11 19 20 360 341 331 327 326 337 333 323 326 338 335 330 327 326 326 326 325 325 327 327 324 322 321 322 322 322 320 319 319 319 318 318
135 137 126 114 111 108 108 108 110 108 108 107 107 103 105 100 95 102 100 102 96 92 80 80 66 42 22 60 34 16 359 321 54 34 91 59 180 285 23 338 328 279 301 299 297 254 253 291 280 311 14 15 10 347 333 328 326 328 331 325 319 331 339 330 325 325 326 325 324 325 327 325 323 320 320 321 321 321 321 319 319 318 317 317 316
127 124 122 120 122 116 112 112 113 111 110 113 111 106 102 98 95 92 88 74 97 94 109 91 79 57 89 4 42 337 340 335 41 39 14 352 5 354 46 21 331 320 321 298 328 284 278 308 304 274 10 17 341 342 325 331 329 326 331 328 329 327 327 326 326 326 326 324 324 324 323 321 319 320 320 319 319 320 320 321 321 319 318 316 315
127 124 125 121 124 125 119 119 115 116 112 112 110 112 114 112 113 108 102 100 124 140 118 106 127 113 93 97 164 265 315 322 35 28 7 357 347 335 340 164 185 309 321 309 298 282 289 29 286 291 17 350 340 330 332 329 324 324 332 333 325 325 322 326 327 326 325 324 323 322 319 317 319 319 320 322 323 322 320 317 316 315 314 313 312
129 130 128 129 126 124 120 118 118 114 117 117 124 132 127 117 117 108 121 110 103 99 128 126 132 117 98 40 73 356 294 65 47 31 42 30 26 11 345 329 145 234 255 296 294 255 273 285 231 295 330 329 334 327 327 321 320 327 334 330 328 321 323 326 325 325 324 324 323 320 317 318 319 322 323 322 320 318 317 316 315 314 314 314 314
130 133 134 133 131 126 122 118 113 117 125 145 143 135 132 124 119 113 98 93 98 102 131 122 178 131 122 89 49 347 344 10 31 44 24 30 4 6 353 30 345 215 244 259 295 279 142 299 270 297 304 314 322 320 315 314 323 332 331 326 322 320 323 322 323 323 323 322 321 320 320 321 322 321 320 319 319 319 319 318 316 316 315 315 313
143 144 142 143 140 132 127 124 129 143 150 153 137 126 122 127 130 120 123 105 98 106 87 65 130 126 122 89 316 258 306 62 54 53 35 353 15 356 343 345 309 285 214 233 254 277 280 277 292 289 300 312 319 320 313 319 320 329 326 325 319 320 319 315 318 320 320 319 318 319 321 321 321 321 322 321 321 319 318 318 317 317 315 314 314
153 152 151 149 144 140 139 142 149 158 153 139 130 123 122 125 126 126 120 109 107 113 115 47 61 113 115 108 311 301 238 95 109 72 45 353 354 346 332 43 7 331 353 280 278 287 294 256 256 297 306 324 313 333 320 328 325 324 324 319 316 317 315 315 313 313 315 315 317 318 318 320 322 322 322 322 321 320 319 318 320 322 323 322 320
160 156 153 149 144 143 143 149 154 156 149 133 130 127 127 131 131 124 114 112 114 123 123 131 8 119 126 114 324 305 360 124 118 22 78 7 1 16 336 80 332 302 299 289 276 279 289 306 306 302 308 314 302 336 331 329 325 322 319 319 316 311 311 310 308 306 311 315 315 316 319 321 320 320 321 321 321 321 321 322 324 323 321 319 317
163 157 154 149 147 143 143 149 151 152 145 135 135 129 134 132 128 116 124 129 141 144 141 187 193 160 106 134 263 276 271 7 330 323 13 331 25 61 307 308 315 290 285 272 292 291 294 294 301 314 321 319 317 322 332 321 313 313 312 314 313 310 302 300 300 297 308 312 313 317 318 318 318 318 319 319 319 320 321 321 321 319 317 316 315
156 157 148 147 144 145 145 151 157 151 144 144 140 137 140 133 128 133 137 140 152 164 172 196 201 173 195 202 265 260 294 346 311 325 314 341 309 308 311 300 298 295 289 279 266 279 295 297 301 316 320 321 317 330 321 311 312 316 314 306 303 299 301 298 295 300 305 309 314 316 315 315 315 316 317 316 317 318 318 318 318 316 315 314 313
159 151 148 143 145 149 156 162 158 157 159 151 141 141 136 135 136 143 154 155 166 177 192 199 209 195 208 216 239 246 292 310 310 313 295 309 292 309 300 294 304 300 317 308 296 291 293 292 297 302 317 308 305 312 325 323 320 313 310 305 306 305 303 301 298 296 300 307 308 309 309 310 312 313 313 314 316 317 318 317 315 314 313 313 312
159 159 152 154 158 161 164 164 159 159 161 153 149 146 143 136 140 147 162 174 185 182 194 212 210 213 213 227 247 244 272 272 275 275 277 276 283 284 287 286 285 298 298 296 290 291 285 286 293 304 313 321 315 311 348 330 320 317 316 310 304 304 307 310 303 300 298 298 302 294 297 299 299 307 311 312 314 315 316 314 313 311 311 311 309
161 159 159 157 162 165 169 162 162 161 158 157 152 151 148 149 153 160 171 176 186 192 208 213 222 218 214 220 238 255 255 255 259 258 260 271 264 260 247 253 264 280 284 281 284 286 286 291 294 287 297 305 302 308 325 318 301 300 306 314 311 309 304 303 307 305 301 297 290 293 293 298 302 304 305 308 310 312 311 310 309 309 308 307 306
167 167 166 167 166 167 171 165 164 159 159 161 161 155 156 157 156 169 174 178 192 208 211 216 206 211 223 230 239 246 242 248 245 256 247 257 251 254 249 245 249 260 269 274 289 294 295 298 298 307 306 305 308 286 291 308 308 299 287 306 307 313 313 307 296 303 305 296 298 293 286 288 284 287 293 297 301 304 307 306 303 303 304 304 305
171 170 166 161 162 168 170 169 166 166 168 175 172 169 162 167 168 173 163 158 161 182 221 253 261 255 264 256 254 254 250 256 265 269 254 243 218 231 251 225 240 244 263 257 265 293 285 291 298 303 304 307 310 316 318 323 322 308 308 304 293 292 296 299 298 291 289 294 293 288 292 292 296 292 293 291 290 294 294 295 296 296 293 300 303
169 168 166 170 174 174 169 171 173 171 181 181 181 177 170 164 161 154 145 149 159 183 206 237 269 246 240 245 258 271 280 282 282 284 286 285 284 278 255 219 233 241 244 254 267 274 280 289 284 297 302 302 309 312 309 307 298 292 292 293 293 296 299 292 289 289 293 283 292 299 295 298 295 294 291 291 292 292 291 292 287 292 299 305 307
173 171 173 178 184 181 176 172 175 182 183 186 186 185 185 180 163 163 163 173 175 189 205 213 233 243 249 244 242 261 270 279 280 278 281 283 283 284 288 290 287 274 268 277 277 276 285 285 289 287 294 300 301 303 298 294 284 287 278 283 288 294 290 301 304 310 154 306 313 304 299 301 296 296 296 293 294 289 289 284 292 303 307 308 306
178 172 181 188 183 183 180 179 181 185 188 189 189 190 189 190 173 166 164 172 183 200 207 220 225 226 234 236 244 234 241 250 253 252 273 283 284 284 287 287 284 287 290 288 296 303 296 295 293 286 291 287 284 285 287 281 280 285 284 287 285 289 295 289 288 298 315 334 314 309 300 301 295 291 295 292 289 291 288 297 304 307 306 305 307
168 181 189 182 191 185 182 181 188 191 189 194 193 195 196 197 193 166 176 169 182 200 212 217 223 227 230 236 245 247 239 273 286 304 269 271 287 286 284 285 290 290 289 287 284 282 287 281 276 279 266 270 276 274 266 278 288 289 291 288 287 284 282 285 292 298 311 334 315 300 295 302 298 290 290 300 295 287 289 297 301 303 305 306 307
183 187 185 189 188 191 190 190 190 191 192 201 196 196 198 200 203 186 161 173 176 191 217 222 224 227 226 225 236 259 253 257 267 270 278 265 260 261 260 251 245 253 267 276 279 275 270 265 264 268 269 258 270 278 281 280 288 291 294 290 292 286 288 292 305 307 309 314 301 298 289 296 299 306 302 295 286 283 285 296 303 305 305 305 306
186 189 187 189 197 194 195 189 187 196 204 203 200 200 200 203 206 193 158 164 177 205 226 226 225 225 226 224 224 234 241 249 240 256 249 252 248 248 251 250 241 243 242 239 246 248 251 251 255 262 270 273 273 279 283 283 276 282 291 297 306 308 305 304 295 292 297 297 295 304 293 305 335 306 289 286 288 291 297 297 299 301 303 305 307
194 177 199 195 193 195 194 187 186 206 213 205 205 204 204 205 207 177 166 173 186 204 216 220 220 219 216 216 222 237 241 247 252 266 267 256 242 242 248 250 251 252 247 243 254 260 266 260 249 241 242 271 288 296 307 311 318 320 315 311 307 296 301 305 305 323 314 324 328 318 300 295 307 287 303 310 304 292 288 283 289 298 304 307 307
186 194 198 196 196 192 191 192 193 207 208 210 205 206 206 206 202 164 176 173 191 211 225 218 222 216 216 220 228 235 239 241 250 259 262 264 261 257 257 260 259 260 259 252 260 272 283 291 296 301 305 309 311 311 312 315 316 318 318 316 317 331 318 311 307 310 308 315 307 287 281 289 316 320 300 287 280 290 290 286 286 299 306 308 314
196 203 195 196 200 196 193 198 197 197 205 213 208 206 207 210 195 175 180 186 203 219 227 224 216 227 226 237 234 225 231 235 246 255 255 256 254 253 257 263 268 266 271 274 278 278 294 299 307 313 314 312 313 316 318 318 321 329 334 318 318 316 304 304 307 311 311 311 304 307 302 304 322 320 312 312 306 293 302 314 309 307 313 315 310
204 187 187 196 203 206 207 203 197 198 201 211 212 210 210 212 200 168 181 187 204 223 222 227 222 214 230 235 242 240 234 232 246 248 248 247 245 245 252 263 270 272 273 309 297 295 311 333 321 327 318 321 322 320 317 322 328 332 323 309 311 310 308 310 310 312 306 303 310 333 314 313 316 317 324 319 307 299 290 289 309 314 301 295 299